Regional Weather Roundup
Issued by NWS Spokane, WA

Home | Current Version | Previous Version | Text Only | Print | Product List | Glossary On
Versions: 1 2 3 4 5 6 7 8 9 10 11 12 13 14 15 16 17 18 19 20 21 22 23 24 25 26 27 28 29 30 31 32 33 34 35 36 37 38 39 40 41 42 43 44 45 46 47 48 49 50
262
NZUS01 KOTX 011710
RWROTX
EASTERN WASHINGTON/NORTHERN IDAHO ROUNDUP
NATIONAL WEATHER SERVICE, SPOKANE WA
1000 AM PDT SUN MAY 01 2016

Note: "fair" indicated few or no clouds below 12,000 feet with no
significant weather and/or obstructions to visibility.

...NORTHEAST WASHINGTON AND NORTHERN IDAHO PANHANDLE...

CITY           SKY/WX    TMP DP  RH WIND       PRES   REMARKS
SPOKANE INTL   MOSUNNY   59  40  49 NE12      30.22F
SPOKANE DOWNTO SUNNY     57  43  59 CALM      30.22F
COEUR D ALENE  SUNNY     59  46  63 N14       30.20F
DEER PARK      SUNNY     61  39  44 NE14      30.24F
SANDPOINT      SUNNY     59  39  47 NE10      30.25F

...SOUTHEAST WASHINGTON AND SOUTHERN IDAHO PANHANDLE...

CITY           SKY/WX    TMP DP  RH WIND       PRES   REMARKS
WALLA WALLA    SUNNY     56  45  66 SW5       30.16F
PULLMAN/MOSCOW SUNNY     60  39  45 E13       30.20F
LEWISTON       SUNNY     55  46  71 VRB5      30.19F
LOWELL           N/A     54  42  64 CALM      30.19F

...COLUMBIA BASIN...

CITY           SKY/WX    TMP DP  RH WIND       PRES   REMARKS
EPHRATA        SUNNY     66  41  40 NE12      30.20F
MOSES LAKE     SUNNY     66  45  46 N7        30.20F
TRI CITIES     SUNNY     61  46  57 N5        30.18F
HERMISTON      SUNNY     62  46  55 E5        30.16F
PENDLETON      SUNNY     60  43  53 W6        30.15F

...EAST SLOPES CASCADES...

CITY           SKY/WX    TMP DP  RH WIND       PRES   REMARKS
THE DALLES     SUNNY     62  45  53 VRB3      30.15F
YAKIMA         SUNNY     71  40  32 N12       30.18F
ELLENSBURG     SUNNY     61  43  51 CALM      30.21F
STAMPEDE PASS  SUNNY     51  34  52 VRB7      30.21F
WENATCHEE      SUNNY     59  39  47 SW6       30.22F
OMAK           SUNNY     62  33  33 N14       30.24F

...SOUTHERN BRITISH COLUMBIA...

CITY           SKY/WX    TMP DP  RH WIND       PRES   REMARKS
PENTICTON      MOSUNNY   57  34  41 N7        30.28F
CASTLEGAR      MOSUNNY   57  43  58 N8        30.28F
CRANBROOK      MOSUNNY   54  36  50 SW3       30.30F

...WESTERN MONTANA...

CITY           SKY/WX    TMP DP  RH WIND       PRES   REMARKS
MISSOULA       SUNNY     57  38  48 MISG      30.27F

...NEIGHBORING CITIES...

CITY           SKY/WX    TMP DP  RH WIND       PRES   REMARKS
SEATTLE        MOSUNNY   63  48  58 N8        30.18F
CALGARY        PTSUNNY   61  34  36 W2        30.26F



USA.gov is the U.S. government's official web portal to all federal, state and local government web resources and services.